"Timestamp","TZ","WindDir_Mean (deg)","WindSpd_Mean (km/h)","WindSpd_Min (km/h)","WindSpd_Max (km/h)","Temp_Mean (deg)","RH_Mean (%)","MSLP_Mean (hPa)","Rain_Acc (mm)","Rain_Intensity (mm/h)","Hail_Acc (hits/cm2)","Hail_Intensity (hits/cm2hr)","Solar_Mean (W/m2)"
2021/02/19 00:00:00.008,n,193,0.72,0.72,1.08,21.6,85.6,1016.62,0,0,0,0,0.031319
2021/02/19 00:01:00.000,n,161,2.16,0.72,3.24,21.6,85.3,1016.62,0,0,0,0,0.031319
2021/02/19 00:02:00.002,n,250,3.6,0.36,5.04,21.6,85.5,1016.62,0,0,0,0,0.030479
2021/02/19 00:03:00.000,n,276,1.44,1.08,2.16,21.6,85.4,1016.62,0,0,0,0,0.030479
2021/02/19 00:04:00.000,n,233,2.88,2.16,3.96,21.6,85.4,1016.62,0,0,0,0,0.033951
2021/02/19 00:05:00.000,n,309,2.16,1.08,4.32,21.6,85.1,1016.62,0,0,0,0,0.033951
2021/02/19 00:06:00.007,n,132,2.88,2.52,3.24,21.5,85.3,1016.62,0,0,0,0,0.033073
2021/02/19 00:07:00.004,n,199,2.52,0.72,3.6,21.5,85.3,1016.62,0,0,0,0,0.032196
2021/02/19 00:08:00.002,n,192,2.88,2.16,3.24,21.5,85.2,1016.52,0,0,0,0,0.035667
2021/02/19 00:09:00.015,n,199,3.96,2.88,4.68,21.5,85.2,1016.52,0,0,0,0,0.033073
2021/02/19 00:10:00.000,n,240,2.16,1.08,2.88,21.5,85.2,1016.52,0,0,0,0,0.039177
2021/02/19 00:11:00.000,n,202,1.44,1.44,2.52,21.5,85.4,1016.52,0,0,0,0,0.028725
2021/02/19 00:12:00.000,n,162,4.32,2.88,5.04,21.5,85.3,1016.62,0,0,0,0,0.031319
2021/02/19 00:13:00.005,n,179,6.48,5.76,7.56,21.5,85.1,1016.52,0,0,0,0,0.033951
2021/02/19 00:14:00.002,n,193,6.12,5.4,6.84,21.4,85,1016.52,0,0,0,0,0.034828
2021/02/19 00:15:00.000,n,226,5.76,5.04,6.12,21.4,85,1016.52,0,0,0,0,0.036545
2021/02/19 00:16:00.000,n,219,3.24,1.8,4.32,21.4,85,1016.52,0,0,0,0,0.038261
2021/02/19 00:17:00.009,n,219,2.52,1.8,3.24,21.4,85.1,1016.42,0,0,0,0,0.031319
2021/02/19 00:18:00.008,n,185,4.32,3.96,4.68,21.4,85.3,1016.42,0,0,0,0,0.033951
2021/02/19 00:19:00.000,n,131,2.52,0.72,4.32,21.4,85.1,1016.42,0,0,0,0,0.038261
2021/02/19 00:20:00.002,n,204,1.8,0.36,2.88,21.4,85.1,1016.42,0,0,0,0,0.035667
2021/02/19 00:21:00.000,n,132,0.72,0.36,1.44,21.4,85.3,1016.42,0,0,0,0,0.035667
2021/02/19 00:22:00.000,n,308,2.52,1.08,3.24,21.4,85.5,1016.42,0,0,0,0,0.034828
2021/02/19 00:23:00.000,n,283,2.52,1.8,3.24,21.5,85.3,1016.42,0,0,0,0,0.033951
2021/02/19 00:24:00.009,n,181,1.08,0.36,2.88,21.5,85.3,1016.42,0,0,0,0,0.039177
2021/02/19 00:25:00.006,n,231,1.8,1.44,2.16,21.5,85.3,1016.42,0,0,0,0,0.033951
2021/02/19 00:26:00.003,n,292,2.88,2.16,3.96,21.4,85.2,1016.32,0,0,0,0,0.034828
2021/02/19 00:27:00.000,n,257,3.96,3.6,4.32,21.4,85.1,1016.32,0.01,0.7,0,0,0.035667
2021/02/19 00:28:00.000,n,270,5.4,4.68,6.12,21.4,85,1016.32,0.01,0,0,0,0.034828
2021/02/19 00:29:00.000,n,261,2.52,1.8,2.88,21.4,85.3,1016.32,0.01,0,0,0,0.036545
2021/02/19 00:30:00.003,n,130,1.8,1.08,2.16,21.4,85.2,1016.32,0.01,0,0,0,0.034828
2021/02/19 00:31:00.000,n,299,2.52,1.8,3.24,21.4,85.2,1016.32,0.01,0,0,0,0.036545
2021/02/19 00:32:00.000,n,237,2.16,1.08,2.88,21.4,85.3,1016.32,0.01,0,0,0,0.034828
2021/02/19 00:33:00.003,n,126,1.08,0.72,1.8,21.4,85.4,1016.22,0.01,0,0,0,0.031319
2021/02/19 00:34:00.008,n,155,5.04,4.32,5.4,21.4,84.9,1016.22,0.01,0,0,0,0.036545
2021/02/19 00:35:00.014,n,179,2.88,0.72,3.96,21.4,85.1,1016.22,0.01,0,0,0,0.033951
2021/02/19 00:36:00.002,n,308,1.08,0.36,1.44,21.4,85.3,1016.22,0.01,0,0,0,0.037422
2021/02/19 00:37:00.000,n,109,2.88,1.8,3.6,21.4,85.2,1016.12,0.01,0,0,0,0.035667
2021/02/19 00:38:00.000,n,170,6.84,6.48,7.56,21.4,85.2,1016.12,0.01,0,0,0,0.039177
2021/02/19 00:39:00.002,n,221,5.04,4.32,5.4,21.3,85,1016.12,0.01,0,0,0,0.032196
2021/02/19 00:40:00.000,n,236,3.6,3.24,3.6,21.3,85.3,1016.12,0.01,0,0,0,0.037422
2021/02/19 00:41:00.000,n,251,1.8,1.44,2.16,21.3,85.2,1016.02,0.01,0,0,0,0.034828
2021/02/19 00:42:00.003,n,105,1.8,1.08,2.16,21.4,85.4,1016.02,0.01,0,0,0,0.037422
2021/02/19 00:43:00.008,n,174,3.24,2.16,3.96,21.4,85.2,1016.02,0.01,0,0,0,0.034828
2021/02/19 00:44:00.014,n,252,5.4,4.32,6.48,21.3,85.3,1016.02,0.01,0,0,0,0.028725
2021/02/19 00:45:00.003,n,183,4.68,3.6,5.76,21.3,85.2,1016.02,0.01,0,0,0,0.036545
2021/02/19 00:46:00.000,n,194,4.68,3.6,5.76,21.3,85.1,1016.02,0.01,0,0,0,0.034828
2021/02/19 00:47:00.000,n,113,2.52,1.8,2.52,21.3,85.2,1016.02,0.01,0,0,0,0.031319
2021/02/19 00:48:00.003,n,20,0.72,0,1.44,21.3,85.1,1016.02,0.01,0,0,0,0.031319
2021/02/19 00:49:00.000,n,260,1.8,1.44,2.16,21.3,85.1,1016.02,0.01,0,0,0,0.033951
2021/02/19 00:50:00.000,n,273,3.24,2.16,3.96,21.3,85.3,1016.02,0.01,0,0,0,0.028725
2021/02/19 00:51:00.003,n,23,0.36,0,0.72,21.3,85.6,1016.02,0.01,0,0,0,0.033073
2021/02/19 00:52:00.009,n,345,1.44,1.08,1.44,21.3,85.7,1016.02,0.01,0,0,0,0.037422
2021/02/19 00:53:00.000,n,4,1.44,0.72,1.8,21.4,85.6,1016.02,0.01,0,0,0,0.032196
2021/02/19 00:54:00.004,n,343,2.52,2.16,2.52,21.4,85.3,1016.02,0.01,0,0,0,0.032196
2021/02/19 00:55:00.000,n,224,1.8,1.44,1.8,21.3,85.3,1016.02,0.01,0,0,0,0.026093
2021/02/19 00:56:00.000,n,230,2.52,1.44,3.96,21.3,85.4,1015.92,0.01,0,0,0,0.034828
2021/02/19 00:57:00.005,n,238,4.32,3.96,5.04,21.3,85.2,1015.92,0.01,0,0,0,0.032196
2021/02/19 00:58:00.000,n,211,2.16,1.08,3.24,21.3,85.1,1015.92,0.01,0,0,0,0.035667
2021/02/19 00:59:00.000,n,205,2.52,2.52,2.88,21.3,84.9,1015.82,0.01,0,0,0,0.030479
2021/02/19 01:00:00.005,n,261,4.32,2.88,6.48,21.3,85.4,1015.82,0.01,0,0,0,0.031319
2021/02/19 01:01:00.011,n,258,3.6,2.52,4.68,21.3,85.7,1015.82,0.01,0,0,0,0.032196
2021/02/19 01:02:00.000,n,244,4.32,3.96,4.32,21.3,85.4,1015.82,0.01,0,0,0,0.033951
2021/02/19 01:03:00.005,n,238,3.24,2.88,3.6,21.3,85.1,1015.82,0.01,0,0,0,0.033073
2021/02/19 01:04:00.000,n,133,1.08,0.36,1.8,21.3,85.1,1015.82,0.01,0,0,0,0.035667
2021/02/19 01:05:00.000,n,160,1.44,0.72,1.8,21.3,85.2,1015.72,0.01,0,0,0,0.033073
2021/02/19 01:06:00.000,n,268,2.52,1.8,2.88,21.2,85.2,1015.72,0.01,0,0,0,0.030479
2021/02/19 01:07:00.000,n,130,1.08,0.72,1.44,21.2,85.2,1015.82,0.01,0,0,0,0.031319
2021/02/19 01:08:00.001,n,153,3.96,2.88,4.68,21.2,85.3,1015.82,0.01,0,0,0,0.033951
2021/02/19 01:09:00.006,n,208,4.32,3.96,4.32,21.2,85.3,1015.72,0.01,0,0,0,0.028725
2021/02/19 01:10:00.013,n,193,5.4,5.04,6.12,21.2,85.1,1015.72,0.01,0,0,0,0.027847
2021/02/19 01:11:00.001,n,186,5.4,5.4,5.76,21.1,85.3,1015.72,0.01,0,0,0,0.029602
2021/02/19 01:12:00.006,n,168,3.24,3.24,3.6,21.1,85.3,1015.72,0.01,0,0,0,0.024376
2021/02/19 01:13:00.000,n,169,6.12,5.76,6.84,21.1,85.3,1015.72,0.01,0,0,0,0.029602
2021/02/19 01:14:00.001,n,179,5.04,3.6,5.76,21.1,85.3,1015.72,0.01,0,0,0,0.027847
2021/02/19 01:15:00.000,n,182,10.08,9,10.440002,21.1,85.4,1015.72,0.01,0,0,0,0.025253
2021/02/19 01:16:00.000,n,170,6.48,5.76,6.84,21.1,85.3,1015.72,0.01,0,0,0,0.02697
2021/02/19 01:17:00.001,n,191,10.08,9,11.16,21.1,85.3,1015.72,0.01,0,0,0,0.031319
2021/02/19 01:18:00.006,n,196,3.6,3.24,5.04,21.1,85.4,1015.62,0.01,0,0,0,0.024376
2021/02/19 01:19:00.012,n,194,2.88,2.16,3.6,21.1,85.4,1015.62,0.01,0,0,0,0.028725
2021/02/19 01:20:00.000,n,169,8.64,7.2,9.72,21.1,85.4,1015.62,0.01,0,0,0,0.027847
2021/02/19 01:21:00.006,n,187,4.68,2.88,6.84,21.1,85.4,1015.62,0.01,0,0,0,0.026093
2021/02/19 01:22:00.000,n,188,9,7.2,10.440002,21.1,85.4,1015.62,0.01,0,0,0,0.029602
2021/02/19 01:23:00.000,n,233,2.16,1.08,2.88,21.1,85.3,1015.62,0.01,0,0,0,0.030479
2021/02/19 01:24:00.006,n,200,1.44,0.72,2.52,21.1,85.5,1015.62,0.01,0,0,0,0.027847
2021/02/19 01:25:00.000,n,168,4.68,3.96,5.04,21.1,85.5,1015.62,0.01,0,0,0,0.027847
2021/02/19 01:26:00.000,n,167,6.84,6.12,7.2,21.1,85.2,1015.62,0.01,0,0,0,0.028725
2021/02/19 01:27:00.005,n,144,2.88,2.52,3.6,21.1,85.3,1015.52,0.01,0,0,0,0.02697
2021/02/19 01:28:00.011,n,194,3.6,2.88,3.96,21.1,85.4,1015.52,0.01,0,0,0,0.02697
2021/02/19 01:29:00.000,n,155,3.6,2.52,3.96,21,85.2,1015.62,0.01,0,0,0,0.025253
2021/02/19 01:30:00.005,n,173,7.92,7.56,8.28,21,85.2,1015.62,0.01,0,0,0,0.029602
2021/02/19 01:31:00.000,n,146,3.96,3.24,4.32,21,85.3,1015.62,0.01,0,0,0,0.025253
2021/02/19 01:32:00.000,n,194,5.4,4.32,6.48,21,85.3,1015.62,0.01,0,0,0,0.021744
2021/02/19 01:33:00.005,n,160,4.32,3.96,4.68,21.1,85.4,1015.62,0.01,0,0,0,0.029602
2021/02/19 01:34:00.000,n,190,6.12,4.32,7.56,21.1,85.4,1015.62,0.01,0,0,0,0.022621
2021/02/19 01:35:00.000,n,184,6.12,5.04,6.12,21.1,85.3,1015.62,0.01,0,0,0,0.028725
2021/02/19 01:36:00.005,n,139,5.76,5.04,6.84,21.1,85.4,1015.62,0.01,0,0,0,0.025253
2021/02/19 01:37:00.011,n,186,3.24,2.88,3.96,21.1,85.5,1015.52,0.01,0,0,0,0.026093
2021/02/19 01:38:00.000,n,207,5.76,4.68,6.48,21.1,85.4,1015.52,0.01,0,0,0,0.026093
2021/02/19 01:39:00.006,n,120,1.8,0.36,2.88,21.1,85.5,1015.52,0.01,0,0,0,0.025253
2021/02/19 01:40:00.000,n,184,7.56,6.84,9.36,21.1,85.5,1015.52,0.01,0,0,0,0.029602
2021/02/19 01:41:00.001,n,208,2.88,2.16,3.6,21.1,85.4,1015.52,0.01,0,0,0,0.02697
2021/02/19 01:42:00.000,n,271,2.88,2.16,3.24,21.1,85.6,1015.42,0.01,0,0,0,0.025253
2021/02/19 01:43:00.000,n,91,1.8,1.08,2.52,21.1,85.8,1015.42,0.01,0,0,0,0.024376
2021/02/19 01:44:00.001,n,186,2.88,2.52,3.6,21.1,85.7,1015.42,0.01,0,0,0,0.02346
2021/02/19 01:45:00.007,n,242,4.32,3.6,4.68,21.1,85.6,1015.42,0.01,0,0,0,0.02697
2021/02/19 01:46:00.012,n,170,5.04,4.68,6.12,21.1,85.5,1015.42,0.01,0,0,0,0.022621
2021/02/19 01:47:00.000,n,162,3.24,1.08,7.92,21.1,85.5,1015.42,0.01,0,0,0,0.024376
2021/02/19 01:48:00.005,n,210,5.04,3.96,5.76,21.1,85.5,1015.42,0.01,0,0,0,0.02697
2021/02/19 01:49:00.000,n,223,4.32,3.6,4.68,21.1,85.7,1015.42,0.01,0,0,0,0.024376
2021/02/19 01:50:00.001,n,164,2.52,1.44,2.88,21.1,85.6,1015.42,0.01,0,0,0,0.020866
2021/02/19 01:51:00.000,n,173,4.32,2.88,5.76,21.1,85.7,1015.42,0.01,0,0,0,0.024376
2021/02/19 01:52:00.000,n,206,3.6,2.88,3.96,21.1,85.8,1015.42,0.01,0,0,0,0.025253
2021/02/19 01:53:00.001,n,162,5.76,3.96,7.2,21.1,85.6,1015.42,0.01,0,0,0,0.016518
2021/02/19 01:54:00.007,n,240,2.52,2.16,3.24,21.1,85.8,1015.42,0.01,0,0,0,0.020866
2021/02/19 01:55:00.012,n,245,1.08,0.36,1.44,21.1,85.8,1015.42,0.01,0,0,0,0.02346
2021/02/19 01:56:00.000,n,121,1.44,1.08,1.8,21.1,85.9,1015.42,0.01,0,0,0,0.025253
2021/02/19 01:57:00.006,n,233,3.24,2.88,3.24,21.1,85.9,1015.42,0.01,0,0,0,0.02346
2021/02/19 01:58:00.000,n,176,2.16,1.8,2.52,21.1,85.9,1015.42,0.01,0,0,0,0.020027
2021/02/19 01:59:00.001,n,243,1.08,0.72,1.8,21.1,85.8,1015.42,0.01,0,0,0,0.020866
2021/02/19 02:00:00.000,n,191,1.44,0.36,2.16,21.1,85.9,1015.42,0.01,0,0,0,0.027008
2021/02/19 02:01:00.000,n,216,1.8,0.72,2.88,21.1,85.8,1015.32,0.01,0,0,0,0.033951
2021/02/19 02:02:00.002,n,21,0.36,0,0.72,21.1,86,1015.32,0.01,0,0,0,0.033951
2021/02/19 02:03:00.007,n,330,5.04,4.32,5.76,21.1,86.2,1015.32,0.01,0,0,0,0.030479
2021/02/19 02:04:00.012,n,204,5.04,4.68,5.76,21.2,86.1,1015.32,0.01,0,0,0,0.031357
2021/02/19 02:05:00.001,n,172,2.52,1.8,2.88,21.1,85.9,1015.32,0.01,0,0,0,0.032196
2021/02/19 02:06:00.007,n,294,1.44,0.72,1.44,21.1,85.8,1015.32,0.01,0,0,0,0.030479
2021/02/19 02:07:00.000,n,274,4.68,3.6,5.04,21.1,85.9,1015.32,0.01,0,0,0,0.033951
2021/02/19 02:08:00.000,n,300,2.88,2.52,3.24,21.1,85.9,1015.32,0.01,0,0,0,0.036583
2021/02/19 02:09:00.006,n,338,1.08,0.72,1.44,21.1,86.1,1015.22,0.01,0,0,0,0.033951
2021/02/19 02:10:00.000,n,274,4.32,3.6,5.04,21.1,85.8,1015.22,0.01,0,0,0,0.029602
2021/02/19 02:11:00.000,n,236,1.8,1.44,2.52,21.1,86,1015.22,0.01,0,0,0,0.03479
2021/02/19 02:12:00.005,n,273,2.52,1.08,4.68,21.1,86,1015.22,0.01,0,0,0,0.030479
2021/02/19 02:13:00.010,n,244,0.72,0.36,1.08,21.1,86,1015.32,0.01,0,0,0,0.03479
2021/02/19 02:14:00.015,n,230,4.32,2.52,5.76,21.1,86,1015.32,0.01,0,0,0,0.033073
2021/02/19 02:15:00.003,n,224,5.04,4.32,5.4,21.1,85.9,1015.32,0.01,0,0,0,0.03479
2021/02/19 02:16:00.000,n,201,3.6,2.52,3.96,21.1,85.9,1015.32,0.01,0,0,0,0.030479
2021/02/19 02:17:00.000,n,226,3.6,2.88,3.6,21.1,85.9,1015.32,0.01,0,0,0,0.035706
2021/02/19 02:18:00.003,n,293,5.04,5.04,5.4,21.1,85.9,1015.32,0.01,0,0,0,0.035706
2021/02/19 02:19:00.000,n,219,0.36,0,0.72,21.1,85.9,1015.32,0.01,0,0,0,0.03479
2021/02/19 02:20:00.000,n,221,1.44,1.08,2.16,21.1,86,1015.32,0.01,0,0,0,0.031357
2021/02/19 02:21:00.003,n,260,3.6,3.6,3.96,21,85.9,1015.32,0.01,0,0,0,0.029602
2021/02/19 02:22:00.008,n,259,4.68,4.32,5.4,21,85.9,1015.22,0.01,0,0,0,0.033073
2021/02/19 02:23:00.014,n,276,1.44,1.08,1.8,21,85.9,1015.22,0.01,0,0,0,0.029602
2021/02/19 02:24:00.001,n,27,2.16,1.08,2.52,21,86.1,1015.22,0.01,0,0,0,0.036583
2021/02/19 02:25:00.000,n,109,1.08,0.72,1.8,21,86.1,1015.22,0.01,0,0,0,0.033951
2021/02/19 02:26:00.000,n,214,1.08,0.72,1.8,21,86.1,1015.22,0.01,0,0,0,0.039177
2021/02/19 02:27:00.001,n,188,1.08,0.36,1.8,21,86,1015.22,0.01,0,0,0,0.030479
2021/02/19 02:28:00.006,n,196,0.36,0,0.36,21,86.3,1015.22,0.01,0,0,0,0.035706
2021/02/19 02:29:00.000,n,236,2.88,1.8,3.24,21,86.2,1015.22,0.01,0,0,0,0.031357
2021/02/19 02:30:00.000,n,266,1.8,1.08,2.88,21,86.2,1015.22,0.01,0,0,0,0.03479
2021/02/19 02:31:00.005,n,121,0.36,0.36,0.36,21,86.2,1015.22,0.01,0,0,0,0.035706
2021/02/19 02:32:00.010,n,336,3.24,1.8,4.32,21,86.1,1015.22,0.01,0,0,0,0.033073
2021/02/19 02:33:00.016,n,259,2.88,2.16,3.6,21,86,1015.22,0.01,0,0,0,0.033951
2021/02/19 02:34:00.000,n,312,1.08,0.36,1.8,21,86.4,1015.12,0.01,0,0,0,0.03479
2021/02/19 02:35:00.000,n,287,2.88,1.44,5.4,21,86.3,1015.12,0.01,0,0,0,0.033073
2021/02/19 02:36:00.000,n,173,4.32,3.6,4.68,21,86,1015.22,0.01,0,0,0,0.031357
2021/02/19 02:37:00.004,n,273,2.52,1.44,3.6,21,86,1015.22,0.01,0,0,0,0.033951
2021/02/19 02:38:00.009,n,161,0.36,0,0.72,21,86,1015.12,0.01,0,0,0,0.03479
2021/02/19 02:39:00.000,n,225,3.24,0.72,4.32,20.9,86.1,1015.12,0.01,0,0,0,0.035706
2021/02/19 02:40:00.003,n,216,2.88,2.52,3.6,20.9,86,1015.22,0.01,0,0,0,0.031357
2021/02/19 02:41:00.008,n,229,1.8,0.72,2.52,20.9,86.1,1015.22,0.01,0,0,0,0.024376
2021/02/19 02:42:00.014,n,226,2.16,1.44,2.52,20.9,86,1015.22,0.01,0,0,0,0.033073
2021/02/19 02:43:00.002,n,250,1.44,1.08,2.52,20.9,86.2,1015.22,0.01,0,0,0,0.031357
2021/02/19 02:44:00.000,n,237,2.52,2.16,3.24,20.9,86.1,1015.22,0.01,0,0,0,0.033073
2021/02/19 02:45:00.000,n,267,2.52,2.16,2.88,20.9,86.2,1015.32,0.01,0,0,0,0.028725
2021/02/19 02:46:00.001,n,212,1.08,0.36,1.44,20.9,86.3,1015.22,0.01,0,0,0,0.033073
2021/02/19 02:47:00.008,n,173,2.52,2.16,2.88,20.9,86.2,1015.22,0.01,0,0,0,0.026131
2021/02/19 02:48:00.000,n,264,3.24,2.88,3.6,20.9,86.2,1015.22,0.01,0,0,0,0.032196
2021/02/19 02:49:00.002,n,236,2.16,1.8,2.52,20.9,86.2,1015.22,0.01,0,0,0,0.030479
2021/02/19 02:50:00.008,n,244,3.96,2.52,5.4,20.9,86.3,1015.22,0.01,0,0,0,0.033073
2021/02/19 02:51:00.013,n,152,3.6,3.24,4.32,20.9,86.2,1015.22,0.01,0,0,0,0.028725
2021/02/19 02:52:00.001,n,254,4.32,3.24,4.68,20.9,86.2,1015.22,0.01,0,0,0,0.029602
2021/02/19 02:53:00.000,n,282,5.76,3.6,7.56,20.9,86.4,1015.22,0.01,0,0,0,0.026131
2021/02/19 02:54:00.000,n,264,1.08,0.36,1.8,20.9,86.3,1015.22,0.01,0,0,0,0.028725
2021/02/19 02:55:00.001,n,247,2.88,2.16,3.96,20.9,86.2,1015.12,0.01,0,0,0,0.028725
2021/02/19 02:56:00.008,n,146,3.96,3.24,4.68,20.9,86.4,1015.12,0.01,0,0,0,0.027847
2021/02/19 02:57:00.000,n,183,4.68,4.32,5.76,20.9,86.2,1015.12,0.01,0,0,0,0.026131
2021/02/19 02:58:00.002,n,189,2.16,1.08,3.24,20.9,86.1,1015.12,0.01,0,0,0,0.028725
2021/02/19 02:59:00.008,n,156,2.16,1.44,2.52,20.8,86.2,1015.02,0.01,0,0,0,0.025253
2021/02/19 03:00:00.013,n,216,5.04,4.68,5.4,20.9,86.4,1015.02,0.01,0,0,0,0.023499
2021/02/19 03:01:00.001,n,148,2.16,1.08,3.24,20.8,86.3,1015.12,0.01,0,0,0,0.027008
2021/02/19 03:02:00.000,n,149,4.68,4.32,5.04,20.9,86.3,1015.12,0.01,0,0,0,0.030479
2021/02/19 03:03:00.000,n,196,1.8,1.08,2.16,20.8,86.3,1015.12,0.01,0,0,0,0.030479
2021/02/19 03:04:00.002,n,230,0.72,0.36,1.44,20.8,86.3,1015.12,0.01,0,0,0,0.027008
2021/02/19 03:05:00.007,n,115,1.08,0.72,1.08,20.8,86.4,1015.02,0.01,0,0,0,0.029602
2021/02/19 03:06:00.000,n,192,1.8,0.72,2.16,20.9,86.5,1015.02,0.01,0,0,0,0.029602
2021/02/19 03:07:00.001,n,170,2.88,2.52,3.6,20.9,86.5,1015.02,0.01,0,0,0,0.027847
2021/02/19 03:08:00.007,n,233,3.24,2.88,3.6,20.9,86.5,1015.02,0.01,0,0,0,0.027008
2021/02/19 03:09:00.013,n,196,1.08,0.36,1.44,20.9,86.5,1015.02,0.01,0,0,0,0.027847
2021/02/19 03:10:00.001,n,228,1.08,0.72,1.08,20.9,86.7,1015.02,0.01,0,0,0,0.024376
2021/02/19 03:11:00.000,n,247,2.88,2.16,3.24,20.9,86.6,1015.02,0.01,0,0,0,0.027847
2021/02/19 03:12:00.000,n,227,0.72,0,1.08,20.9,86.5,1015.12,0.01,0,0,0,0.026131
2021/02/19 03:13:00.002,n,229,3.24,2.88,3.24,20.9,86.5,1015.02,0.01,0,0,0,0.029602
2021/02/19 03:14:00.007,n,219,4.68,3.6,5.4,20.9,86.5,1015.02,0.01,0,0,0,0.024376
2021/02/19 03:15:00.000,n,203,3.96,3.6,4.68,20.9,86.5,1015.02,0.01,0,0,0,0.024376
2021/02/19 03:16:00.001,n,287,2.52,1.44,3.6,20.9,86.7,1015.02,0.01,0,0,0,0.024376
2021/02/19 03:17:00.007,n,251,4.32,3.96,4.68,20.9,86.7,1015.02,0.01,0,0,0,0.022621
2021/02/19 03:18:00.012,n,275,2.88,2.16,3.6,20.9,86.7,1014.92,0.01,0,0,0,0.027008
2021/02/19 03:19:00.000,n,208,2.88,2.52,3.24,20.9,86.5,1014.92,0.01,0,0,0,0.024376
2021/02/19 03:20:00.000,n,264,5.4,4.68,6.12,20.9,86.5,1014.92,0.01,0,0,0,0.021782
2021/02/19 03:21:00.000,n,223,1.44,0.72,1.8,20.9,86.4,1014.92,0.01,0,0,0,0.023499
2021/02/19 03:22:00.001,n,234,2.88,2.52,3.6,20.9,86.6,1014.92,0.01,0,0,0,0.021782
2021/02/19 03:23:00.006,n,251,3.96,3.24,4.68,20.9,86.5,1014.92,0.01,0,0,0,0.023499
2021/02/19 03:24:00.000,n,211,2.88,2.16,3.24,20.9,86.4,1014.92,0.01,0,0,0,0.020905
2021/02/19 03:25:00.001,n,204,1.08,0.36,2.88,20.9,86.4,1014.92,0.01,0,0,0,0.021782
2021/02/19 03:26:00.007,n,221,3.6,3.24,3.96,20.9,86.4,1014.92,0.01,0,0,0,0.025253
2021/02/19 03:27:00.012,n,260,4.68,4.32,5.04,20.9,86.4,1014.92,0.01,0,0,0,0.026131
2021/02/19 03:28:00.001,n,233,1.8,1.44,2.16,20.8,86.5,1014.92,0.01,0,0,0,0.026131
2021/02/19 03:29:00.000,n,160,1.44,0.72,2.16,20.9,86.6,1014.92,0.01,0,0,0,0.024376
2021/02/19 03:30:00.000,n,269,1.8,0.36,2.88,20.9,86.5,1014.92,0.01,0,0,0,0.025253
2021/02/19 03:31:00.001,n,174,3.6,1.08,5.4,20.8,86.4,1014.92,0.01,0,0,0,0.023499
2021/02/19 03:32:00.007,n,138,2.52,2.16,2.52,20.8,86.4,1014.92,0.01,0,0,0,0.026131
2021/02/19 03:33:00.000,n,152,4.32,3.6,4.68,20.8,86.4,1014.92,0.01,0,0,0,0.027008
2021/02/19 03:34:00.000,n,247,2.16,1.8,2.88,20.8,86.4,1014.92,0.01,0,0,0,0.022621
2021/02/19 03:35:00.006,n,136,6.12,5.76,6.48,20.8,86.3,1014.92,0.01,0,0,0,0.028725
2021/02/19 03:36:00.011,n,141,2.52,1.44,2.88,20.8,86.4,1014.92,0.01,0,0,0,0.025253
2021/02/19 03:37:00.000,n,146,2.88,0.72,5.04,20.7,86.4,1014.92,0.01,0,0,0,0.026131
2021/02/19 03:38:00.000,n,153,2.88,2.52,3.24,20.7,86.4,1014.92,0.01,0,0,0,0.023499
2021/02/19 03:39:00.000,n,280,1.44,1.08,2.16,20.7,86.4,1014.92,0.01,0,0,0,0.023499
2021/02/19 03:40:00.000,n,172,1.44,1.08,2.16,20.7,86.5,1014.92,0.01,0,0,0,0.020027
2021/02/19 03:41:00.006,n,146,1.08,0.36,3.24,20.7,86.6,1015.02,0.01,0,0,0,0.025253
2021/02/19 03:42:00.011,n,235,1.8,1.08,2.16,20.8,86.6,1015.02,0.01,0,0,0,0.021782
2021/02/19 03:43:00.000,n,250,3.24,2.16,5.04,20.8,86.6,1015.02,0.01,0,0,0,0.021782
2021/02/19 03:44:00.004,n,264,5.4,4.68,6.12,20.8,86.6,1015.02,0.01,0,0,0,0.022621
2021/02/19 03:45:00.011,n,244,6.84,6.48,7.56,20.8,86.5,1015.02,0.01,0,0,0,0.028725
2021/02/19 03:46:00.000,n,277,9.36,8.64,10.440002,20.8,86.2,1015.02,0.01,0,0,0,0.032234
2021/02/19 03:47:00.001,n,254,2.52,2.16,2.88,20.7,86.2,1015.12,0.01,0,0,0,0.033951
2021/02/19 03:48:00.000,n,260,4.32,3.96,4.68,20.7,86.2,1015.12,0.01,0,0,0,0.028725
2021/02/19 03:49:00.000,n,261,4.32,3.24,4.68,20.7,86.4,1015.12,0.01,0,0,0,0.035706
2021/02/19 03:50:00.002,n,265,4.68,3.96,4.68,20.7,86.4,1015.12,0.01,0,0,0,0.033951
2021/02/19 03:51:00.007,n,266,4.32,3.6,4.68,20.7,86.4,1015.02,0.01,0,0,0,0.028725
2021/02/19 03:52:00.012,n,252,2.88,2.88,2.88,20.7,86.3,1015.02,0.01,0,0,0,0.032234
2021/02/19 03:53:00.001,n,242,4.32,3.24,4.68,20.7,86.5,1015.02,0.01,0,0,0,0.0383
2021/02/19 03:54:00.007,n,242,3.96,3.6,4.68,20.7,86.5,1015.02,0.01,0,0,0,0.033951
2021/02/19 03:55:00.000,n,238,3.24,2.52,3.6,20.8,86.5,1015.02,0.01,0,0,0,0.030479
2021/02/19 03:56:00.002,n,268,5.4,3.6,7.2,20.8,86.8,1015.02,0.01,0,0,0,0.033073
2021/02/19 03:57:00.000,n,217,1.8,1.44,2.16,20.8,86.7,1015.12,0.01,0,0,0,0.033073
2021/02/19 03:58:00.000,n,349,2.88,1.08,4.68,20.8,86.6,1015.02,0.01,0,0,0,0.032234
2021/02/19 03:59:00.003,n,239,1.44,0.72,2.16,20.8,86.6,1015.02,0.01,0,0,0,0.033951
2021/02/19 04:00:00.008,n,228,3.24,2.88,3.6,20.8,86.4,1015.02,0.01,0,0,0,0.033951
2021/02/19 04:01:00.000,n,264,2.52,2.16,3.24,20.8,86.4,1015.12,0.01,0,0,0,0.033073
2021/02/19 04:02:00.002,n,306,2.52,2.16,3.24,20.8,86.8,1015.12,0.01,0,0,0,0.032234
2021/02/19 04:03:00.008,n,291,2.88,1.44,3.6,20.9,86.7,1015.12,0.01,0,0,0,0.033073
2021/02/19 04:04:00.000,n,260,2.16,0.72,4.68,20.9,86.5,1015.12,0.01,0,0,0,0.033073
2021/02/19 04:05:00.003,n,259,4.68,3.6,5.04,20.9,86.2,1015.12,0.01,0,0,0,0.033951
2021/02/19 04:06:00.000,n,201,3.24,2.16,3.6,20.8,86.3,1015.12,0.01,0,0,0,0.030479
2021/02/19 04:07:00.000,n,217,1.8,1.8,2.16,20.8,86.3,1015.12,0.01,0,0,0,0.030479
2021/02/19 04:08:00.003,n,233,2.88,2.16,4.32,20.8,86.2,1015.12,0.01,0,0,0,0.031357
2021/02/19 04:09:00.008,n,254,2.52,1.08,3.96,20.8,86.4,1015.12,0.01,0,0,0,0.033951
2021/02/19 04:10:00.013,n,221,3.24,2.52,4.68,20.8,86.3,1015.12,0.01,0,0,0,0.030479
2021/02/19 04:11:00.002,n,264,6.84,3.96,8.64,20.8,86.4,1015.12,0.01,0,0,0,0.033073
2021/02/19 04:12:00.008,n,259,3.24,2.88,3.24,20.8,86.4,1015.12,0.01,0,0,0,0.031357
2021/02/19 04:13:00.000,n,218,0.72,0,1.44,20.8,86.5,1015.12,0.01,0,0,0,0.033073
2021/02/19 04:14:00.004,n,285,2.52,1.44,3.6,20.9,86.6,1015.12,0.01,0,0,0,0.028725
2021/02/19 04:15:00.000,n,287,3.24,2.88,3.6,20.9,86.6,1015.22,0.01,0,0,0,0.029602
2021/02/19 04:16:00.000,n,247,4.32,3.24,5.4,20.9,86.3,1015.22,0.01,0,0,0,0.034828
2021/02/19 04:17:00.003,n,244,3.24,2.52,3.96,20.8,86.3,1015.22,0.01,0,0,0,0.033073
2021/02/19 04:18:00.009,n,195,2.16,1.44,2.88,20.8,86.3,1015.22,0.01,0,0,0,0.030479
2021/02/19 04:19:00.000,n,265,8.64,7.2,9.72,20.8,86.3,1015.22,0.01,0,0,0,0.028725
2021/02/19 04:20:00.002,n,263,1.44,0.72,2.16,20.8,86.4,1015.22,0.01,0,0,0,0.033073
2021/02/19 04:21:00.008,n,182,2.88,1.44,3.96,20.9,86.3,1015.22,0.01,0,0,0,0.034828
2021/02/19 04:22:00.000,n,165,3.6,3.24,3.96,20.9,86.5,1015.22,0.01,0,0,0,0.033073
2021/02/19 04:23:00.003,n,182,1.8,1.08,3.24,20.9,86.4,1015.22,0.01,0,0,0,0.03746
2021/02/19 04:24:00.000,n,150,1.44,0.72,1.8,20.9,86.4,1015.22,0.01,0,0,0,0.035706
2021/02/19 04:25:00.000,n,228,3.6,3.24,3.96,20.9,86.4,1015.32,0.01,0,0,0,0.031357
2021/02/19 04:26:00.002,n,185,2.16,1.8,2.88,20.9,86.3,1015.22,0.01,0,0,0,0.036583
2021/02/19 04:27:00.008,n,194,3.6,3.24,4.32,20.9,86.2,1015.32,0.01,0,0,0,0.03746
2021/02/19 04:28:00.000,n,318,1.44,0.72,2.52,20.9,86.2,1015.32,0.01,0,0,0,0.032234
2021/02/19 04:29:00.003,n,189,5.76,5.04,6.12,20.9,86.1,1015.32,0.01,0,0,0,0.034828
2021/02/19 04:30:00.009,n,148,3.6,2.52,4.32,20.8,86.1,1015.32,0.01,0,0,0,0.035706
2021/02/19 04:31:00.000,n,209,5.76,4.68,6.12,20.8,86,1015.32,0.01,0,0,0,0.035706
2021/02/19 04:32:00.000,n,197,5.04,4.32,5.4,20.8,86,1015.32,0.01,0,0,0,0.035706
2021/02/19 04:33:00.000,n,196,4.32,3.24,5.04,20.8,86,1015.42,0.01,0,0,0,0.036583
2021/02/19 04:34:00.000,n,212,3.24,2.52,3.6,20.8,86,1015.42,0.01,0,0,0,0.033951
2021/02/19 04:35:00.005,n,266,2.16,1.8,2.52,20.8,86.1,1015.32,0.01,0,0,0,0.036583
2021/02/19 04:36:00.010,n,166,3.24,1.8,4.32,20.8,86,1015.32,0.01,0,0,0,0.039177
2021/02/19 04:37:00.000,n,250,1.8,1.8,2.16,20.8,86,1015.32,0.01,0,0,0,0.0383
2021/02/19 04:38:00.005,n,214,3.6,2.88,4.32,20.8,85.9,1015.32,0.01,0,0,0,0.036583
2021/02/19 04:39:00.010,n,244,3.6,3.6,3.96,20.8,85.9,1015.32,0.01,0,0,0,0.042648
2021/02/19 04:40:00.000,n,241,2.16,1.8,2.52,20.9,86,1015.32,0.01,0,0,0,0.035706
2021/02/19 04:41:00.000,n,202,7.2,6.12,8.64,20.9,85.8,1015.32,0.01,0,0,0,0.033073
2021/02/19 04:42:00.000,n,202,1.44,0.36,2.88,20.9,86,1015.32,0.01,0,0,0,0.039177
2021/02/19 04:43:00.000,n,148,0.72,0.36,1.08,20.9,86,1015.32,0.01,0,0,0,0.0383
2021/02/19 04:44:00.005,n,33,0.72,0.36,1.08,20.9,85.9,1015.32,0.01,0,0,0,0.036583
2021/02/19 04:45:00.000,n,231,3.6,2.52,4.68,20.9,85.8,1015.32,0.01,0,0,0,0.033073
2021/02/19 04:46:00.001,n,258,3.6,1.44,4.32,20.9,85.8,1015.22,0.01,0,0,0,0.0383